Weather reports worldwide

Advertisment
Alicante/El Altet, Spain (8360): temperature & dewpoint: 04.04.2020 21:00:00 - 10.04.2020 21:00:00 (CEST)Alicante/El Altet, Spain (8360): wind speed: 04.04.2020 21:00:00 - 10.04.2020 21:00:00 (CEST)Alicante/El Altet, Spain (8360): wind direction: 04.04.2020 21:00:00 - 10.04.2020 21:00:00 (CEST)Alicante/El Altet, Spain (8360): reduced air pressure: 04.04.2020 21:00:00 - 10.04.2020 21:00:00 (CEST)Alicante/El Altet, Spain (8360): visibility: 04.04.2020 21:00:00 - 10.04.2020 21:00:00 (CEST)
Date & Time tt [°C] td [°C] ff [km/h] ff [kn] dd ppp [hPa] vv [km]
10.04.2020 21:00:00 - - - - - - -
10.04.2020 20:00:00 16,2 10,0 11 6 ENE 1022,5 35
10.04.2020 19:00:00 16,9 9,0 15 8 ENE 1022,2 -
10.04.2020 18:00:00 18,7 8,6 15 8 ENE 1021,9 -
10.04.2020 17:00:00 18,5 6,7 13 7 ENE 1021,9 40
10.04.2020 16:00:00 18,1 9,6 15 8 E 1022,1 -
10.04.2020 15:00:00 17,7 9,3 18 10 ENE 1022,5 -
10.04.2020 14:00:00 18,4 10,3 16 9 ENE 1022,8 40
10.04.2020 13:00:00 19,5 6,2 16 9 E 1022,9 -
10.04.2020 12:00:00 19,2 6,1 13 7 E 1023,1 -
10.04.2020 11:00:00 17,7 5,5 11 6 ENE 1023,0 35
10.04.2020 10:00:00 16,9 6,0 2 1 NNE 1022,4 -
10.04.2020 09:00:00 14,0 6,6 5 3 W 1022,0 -
10.04.2020 08:00:00 13,8 4,3 5 3 NW 1021,4 30
10.04.2020 07:00:00 13,6 4,6 5 3 NNW 1021,1 -
10.04.2020 06:00:00 12,8 5,3 4 2 NW 1021,1 -
10.04.2020 05:00:00 13,6 4,8 8 4 N 1021,2 40
10.04.2020 04:00:00 15,0 2,0 9 5 NNE 1021,4 -
10.04.2020 03:00:00 14,2 4,4 0 0 N 1021,8 -
10.04.2020 02:00:00 15,4 1,7 5 3 N 1022,0 40
10.04.2020 01:00:00 15,6 3,9 5 3 NNE 1022,2 -
10.04.2020 00:00:00 15,4 4,3 8 4 NNE 1022,3 -
09.04.2020 23:00:00 15,7 5,8 8 4 N 1022,4 30
09.04.2020 22:00:00 15,8 5,0 5 3 NE 1021,9 -
09.04.2020 21:00:00 15,8 6,4 11 6 NE 1021,1 -
09.04.2020 20:00:00 16,5 8,0 11 6 ENE 1021,1 30
09.04.2020 19:00:00 17,0 9,2 18 10 ENE 1021,0 -
09.04.2020 18:00:00 17,9 9,8 21 11 ENE 1021,0 -
09.04.2020 17:00:00 17,8 9,5 22 12 ENE 1021,2 30
09.04.2020 16:00:00 19,1 8,6 21 11 ENE 1021,2 -
09.04.2020 15:00:00 18,7 6,8 22 12 ENE 1021,6 -
09.04.2020 14:00:00 19,5 6,9 22 12 ENE 1021,9 30
09.04.2020 13:00:00 17,7 6,8 18 10 ENE 1022,3 -
09.04.2020 12:00:00 17,8 7,2 15 8 ENE 1022,6 -
09.04.2020 11:00:00 17,7 8,0 9 5 ENE 1022,6 30
09.04.2020 10:00:00 14,7 9,6 5 3 W 1022,5 -
09.04.2020 09:00:00 12,3 9,1 2 1 WNW 1022,2 -
09.04.2020 08:00:00 11,6 8,7 0 0 N 1021,4 20
09.04.2020 07:00:00 11,0 8,5 8 4 WNW 1021,1 -
09.04.2020 06:00:00 11,0 8,8 11 6 NW 1021,2 -
09.04.2020 05:00:00 10,8 8,3 9 5 NW 1021,6 30
09.04.2020 04:00:00 10,3 8,2 8 4 N 1021,9 -
09.04.2020 03:00:00 10,0 7,4 8 4 NW 1022,7 -
09.04.2020 02:00:00 10,2 7,8 5 3 NE 1023,2 30
09.04.2020 01:00:00 11,3 9,3 9 5 NNW 1023,7 -
09.04.2020 00:00:00 12,7 10,5 8 4 NNW 1023,9 -
08.04.2020 23:00:00 12,5 11,1 8 4 NNW 1024,0 30
08.04.2020 22:00:00 13,6 11,3 8 4 NNE 1023,6 -
08.04.2020 21:00:00 14,0 11,8 13 7 ENE 1023,1 -
08.04.2020 20:00:00 15,1 12,0 16 9 ENE 1022,8 30
08.04.2020 19:00:00 16,4 10,2 16 9 ENE 1022,6 -
08.04.2020 18:00:00 17,2 10,5 16 9 ENE 1022,6 -
08.04.2020 17:00:00 17,3 11,3 16 9 ENE 1022,9 40
08.04.2020 16:00:00 17,5 11,0 18 10 ENE 1023,7 -
08.04.2020 15:00:00 17,5 10,0 16 9 E 1024,4 -
08.04.2020 14:00:00 17,7 6,7 18 10 ENE 1024,8 30
08.04.2020 13:00:00 17,7 6,1 15 8 E 1025,3 -
08.04.2020 12:00:00 17,5 8,9 16 9 ENE 1025,5 -
08.04.2020 11:00:00 16,9 8,7 15 8 ENE 1025,6 25
08.04.2020 10:00:00 16,1 9,6 11 6 NE 1025,5 -
08.04.2020 09:00:00 13,5 9,5 9 5 N 1025,5 -
08.04.2020 08:00:00 10,6 7,9 9 5 NW 1025,4 40
08.04.2020 07:00:00 10,6 7,1 9 5 WNW 1025,3 -
08.04.2020 06:00:00 9,5 6,7 4 2 NW 1025,2 -
08.04.2020 05:00:00 9,7 6,1 4 2 N 1025,5 15
08.04.2020 04:00:00 11,6 5,8 9 5 NNW 1025,9 -
08.04.2020 03:00:00 10,3 7,8 5 3 WNW 1026,2 -
08.04.2020 02:00:00 11,1 9,7 9 5 NNW 1026,8 15
08.04.2020 01:00:00 11,8 10,6 8 4 WNW 1027,1 -
08.04.2020 00:00:00 13,6 11,2 5 3 NE 1026,9 -
07.04.2020 23:00:00 13,9 11,7 11 6 ENE 1026,9 15
07.04.2020 22:00:00 14,4 12,0 11 6 ENE 1026,5 -
07.04.2020 21:00:00 14,4 11,8 16 9 ENE 1025,9 -
07.04.2020 20:00:00 15,2 11,9 16 9 ENE 1025,2 45
07.04.2020 19:00:00 15,9 12,0 18 10 ENE 1025,0 -
07.04.2020 18:00:00 16,7 11,1 16 9 ENE 1025,0 -
07.04.2020 17:00:00 17,0 11,5 18 10 E 1025,4 45
07.04.2020 16:00:00 17,6 11,2 18 10 E 1025,7 -
07.04.2020 15:00:00 18,0 11,4 16 9 E 1026,0 -
07.04.2020 14:00:00 17,7 10,9 18 10 E 1026,2 -
07.04.2020 13:00:00 17,7 11,8 16 9 E 1026,5 -
07.04.2020 12:00:00 16,9 11,0 16 9 E 1026,6 -
07.04.2020 11:00:00 16,9 10,7 16 9 ENE 1026,5 -
07.04.2020 10:00:00 16,1 11,4 11 6 NNE 1026,1 -
07.04.2020 09:00:00 13,1 11,1 8 4 NNE 1026,0 -
07.04.2020 08:00:00 11,2 10,1 8 4 N 1025,6 40
07.04.2020 07:00:00 12,2 10,4 5 3 NNW 1025,2 -
07.04.2020 06:00:00 11,3 10,0 8 4 N 1025,0 -
07.04.2020 05:00:00 12,5 10,7 11 6 N 1024,7 29
07.04.2020 04:00:00 12,7 10,8 8 4 N 1025,1 -
07.04.2020 03:00:00 12,8 11,3 8 4 NNW 1025,4 -
07.04.2020 02:00:00 13,0 11,6 9 5 NNE 1025,4 29
07.04.2020 01:00:00 13,4 11,7 5 3 N 1025,4 -
07.04.2020 00:00:00 12,9 11,1 5 3 N 1025,5 -
06.04.2020 23:00:00 13,7 11,8 5 3 N 1025,0 45
06.04.2020 22:00:00 13,8 11,8 8 4 NE 1025,0 -
06.04.2020 21:00:00 14,3 12,0 9 5 NE 1024,3 -
06.04.2020 20:00:00 15,0 12,0 13 7 ENE 1023,9 15
06.04.2020 19:00:00 15,7 12,1 15 8 E 1023,6 -
06.04.2020 18:00:00 16,7 12,0 15 8 E 1023,6 -
06.04.2020 17:00:00 17,4 11,5 13 7 E 1023,2 30
06.04.2020 16:00:00 17,2 11,2 11 6 SE 1023,7 -
06.04.2020 15:00:00 17,4 10,9 11 6 E 1023,8 -
06.04.2020 14:00:00 17,5 11,5 13 7 E 1023,8 25
06.04.2020 13:00:00 17,3 12,1 11 6 ESE 1024,3 -
06.04.2020 12:00:00 17,1 11,2 4 2 SSE 1024,2 -
06.04.2020 11:00:00 15,3 10,7 8 4 E 1023,8 25
06.04.2020 10:00:00 15,5 10,7 2 1 W 1023,4 -
06.04.2020 09:00:00 12,3 10,3 5 3 W 1023,2 -
06.04.2020 08:00:00 9,6 8,6 8 4 WNW 1022,2 35
06.04.2020 07:00:00 9,5 8,7 8 4 W 1021,6 -
06.04.2020 06:00:00 10,1 9,3 5 3 W 1021,2 -
06.04.2020 05:00:00 11,3 10,2 4 2 NW 1021,5 30
06.04.2020 04:00:00 11,8 10,5 5 3 WNW 1021,6 -
06.04.2020 03:00:00 12,3 10,2 8 4 N 1021,5 -
06.04.2020 02:00:00 12,2 10,1 8 4 NNE 1021,5 35
06.04.2020 01:00:00 10,8 9,6 8 4 W 1022,0 -
06.04.2020 00:00:00 11,7 9,8 4 2 W 1021,7 -
05.04.2020 23:00:00 12,6 10,1 4 2 ENE 1021,3 40
05.04.2020 22:00:00 13,1 10,1 8 4 ENE 1020,8 -
05.04.2020 21:00:00 13,3 10,2 9 5 ENE 1020,4 -
05.04.2020 20:00:00 14,3 10,1 13 7 ENE 1019,7 20
05.04.2020 19:00:00 15,5 10,2 15 8 ENE 1019,6 -
05.04.2020 18:00:00 16,0 10,1 15 8 E 1019,8 -
05.04.2020 17:00:00 16,2 9,7 18 10 ENE 1019,7 20
05.04.2020 16:00:00 16,1 9,3 16 9 E 1020,5 -
05.04.2020 15:00:00 15,7 10,1 16 9 E 1021,1 -
05.04.2020 14:00:00 16,3 9,9 18 10 E 1021,2 20
05.04.2020 13:00:00 15,9 9,8 21 11 ENE 1021,5 -
05.04.2020 12:00:00 16,5 10,6 18 10 ENE 1021,7 -
05.04.2020 11:00:00 16,4 10,3 15 8 ENE 1021,5 20
05.04.2020 10:00:00 15,8 8,0 13 7 NNE 1021,0 -
05.04.2020 09:00:00 12,3 8,1 9 5 N 1021,0 -
05.04.2020 08:00:00 9,5 7,6 9 5 N 1020,4 20
05.04.2020 07:00:00 9,5 7,7 9 5 N 1019,8 -
05.04.2020 06:00:00 10,6 7,8 9 5 N 1019,6 -
05.04.2020 05:00:00 12,1 8,6 11 6 N 1019,6 20
05.04.2020 04:00:00 12,8 8,1 11 6 N 1019,8 -
05.04.2020 03:00:00 12,9 8,7 11 6 N 1020,2 -
05.04.2020 02:00:00 12,3 9,3 9 5 NNE 1020,7 20
05.04.2020 01:00:00 12,6 10,1 9 5 NNE 1020,3 -
05.04.2020 00:00:00 12,9 10,7 13 7 N 1020,1 -
04.04.2020 23:00:00 12,8 10,6 8 4 NE 1020,7 15
04.04.2020 22:00:00 13,1 10,7 11 6 ENE 1020,7 -
04.04.2020 21:00:00 13,7 11,0 11 6 ENE 1020,2 -

tt = temperature
td = dewpoint
ff = wind speed
dd = wind direction
ppp = reduced air pressure
vv = visibility

Next stations